Westfield, MA

6:05 PM EST on December 13, 2017 (GMT -0500)
Barnes Municipal

Weather History for KBAF - June, 2013

Change the Weather History Date:

Sunday, June 16, 2013

  Actual Average Record
Temperature  
Mean Temperature 62 °F -  
Max Temperature 75 °F 75 °F 87 °F (2000)
Min Temperature 50 °F 54 °F 46 °F (1999)
Degree Days  
Heating Degree Days 2    
Growing Degree Days 12 (Base 50)    
Moisture  
Dew Point 55 °F    
Average Humidity 71    
Maximum Humidity 93    
Minimum Humidity 50    
Precipitation  
Precipitation 0.00 in - - ()
Sea Level Pressure  
Sea Level Pressure 29.86 in    
Wind  
Wind Speed 4 mph (SSW)    
Max Wind Speed 16 mph    
Max Gust Speed -    
Visibility 10 miles    
Events      
Averages and records for this station are not official NWS values.
T = Trace of Precipitation, MM = Missing Value Source: NWS Daily Summary

Daily Weather History Graph

Daily Weather History Graph

Search for Another Location

Airport or City:

Trip Planner

Search our weather history database for the weather conditions in past years. The results will help you decide how hot, cold, wet, or windy it might be!

Date:

Astronomy

Jun. 16, 2013 Rise Set
Actual Time 5:14 AM EDT 8:29 PM EDT
Civil Twilight 4:39 AM EDT 9:03 PM EDT
Nautical Twilight 3:55 AM EDT 9:48 PM EDT
Astronomical Twilight 3:00 AM EDT 10:42 PM EDT
Moon 12:55 PM EDT (6/16) 12:25 AM EDT (6/16)
Length of Visible Light 16h 24m
Length of Day
15h 15m
Waxing Crescent, 49% of the Moon is Illuminated
Jun 16
Waxing Crescent
Jun 16
First Quarter
Jun 23
Full
Jun 30
Last Quarter
Jul 8
New

Hourly Weather History & Observations

Time (EDT) Temp. Dew Point Humidity Pressure Visibility Wind Dir Wind Speed Gust Speed Precip Events Conditions
12:53 AM 55.9 °F 51.1 °F 84% 29.96 in 10.0 mi Calm Calm - N/A   Clear
1:53 AM 53.1 °F 51.1 °F 93% 29.96 in 10.0 mi Calm Calm - N/A   Clear
2:53 AM 51.1 °F 48.9 °F 92% 29.97 in 10.0 mi Calm Calm - N/A   Clear
3:53 AM 50.0 °F 48.0 °F 93% 29.95 in 10.0 mi Calm Calm - N/A   Clear
4:53 AM 50.0 °F 46.9 °F 89% 29.95 in 10.0 mi Calm Calm - N/A   Clear
5:53 AM 50.0 °F 48.0 °F 93% 29.96 in 10.0 mi SSE 3.5 mph - N/A   Partly Cloudy
6:53 AM 54.0 °F 50.0 °F 86% 29.96 in 10.0 mi Calm Calm - N/A   Clear
7:53 AM 60.1 °F 51.1 °F 72% 29.96 in 10.0 mi SSE 3.5 mph - N/A   Clear
8:53 AM 64.0 °F 51.1 °F 63% 29.95 in 10.0 mi South 5.8 mph - N/A   Clear
9:53 AM 64.9 °F 54.0 °F 68% 29.93 in 10.0 mi South 4.6 mph - N/A   Clear
10:53 AM 66.0 °F 57.0 °F 73% 29.91 in 10.0 mi South 6.9 mph - N/A   Clear
11:53 AM 69.1 °F 55.9 °F 63% 29.88 in 10.0 mi South 6.9 mph - N/A   Mostly Cloudy
12:53 PM 73.0 °F 57.0 °F 57% 29.85 in 10.0 mi South 9.2 mph - N/A   Overcast
1:53 PM 72.0 °F 57.9 °F 61% 29.81 in 10.0 mi South 5.8 mph - N/A   Overcast
2:53 PM 73.0 °F 57.9 °F 59% 29.78 in 10.0 mi SSE 8.1 mph - N/A   Overcast
3:53 PM 73.9 °F 57.0 °F 55% 29.75 in 10.0 mi South 11.5 mph - N/A   Overcast
4:53 PM 75.9 °F 55.9 °F 50% 29.73 in 10.0 mi SSW 16.1 mph - N/A   Scattered Clouds
5:53 PM 73.0 °F 57.0 °F 57% 29.73 in 10.0 mi South 9.2 mph - N/A   Overcast
6:53 PM 73.0 °F 59.0 °F 61% 29.72 in 10.0 mi SSW 6.9 mph - N/A   Overcast
7:53 PM 75.0 °F 59.0 °F 57% 29.73 in 10.0 mi SW 8.1 mph - N/A   Overcast
8:53 PM 73.9 °F 59.0 °F 59% 29.75 in 10.0 mi WSW 5.8 mph - N/A   Overcast
9:53 PM 71.1 °F 60.1 °F 68% 29.78 in 10.0 mi West 6.9 mph - N/A   Clear
10:53 PM 70.0 °F 59.0 °F 68% 29.81 in 10.0 mi NW 9.2 mph - N/A   Clear
11:53 PM 68.0 °F 59.0 °F 73% 29.83 in 10.0 mi WNW 6.9 mph - N/A   Clear